#timestamp,LO_Frequency,Hit,StdDev 
1574553615.3,286046997.4,N
1574553635.2,286046993.5,Y
1574553655.0,286046996.8,P
1574553655.9,286046996.8,P
1574553675.7,286046996.7,P
1574553695.6,286046997.0,Y
1574553715.4,286047002.4,P
1574553735.3,286047002.5,N
1574553755.1,286047001.7,N
1574553756.0,286047001.7,N
1574553775.8,286047001.4,N
1574553795.7,286047004.1,N
1574553815.5,286047004.2,N
1574553835.3,286047001.6,N
1574553855.2,286047001.6,N
1574553875.0,286047003.8,N
1574553875.9,286047003.8,N
1574553895.8,286047004.2,N
1574553915.6,286047002.9,N
1574553935.4,286047003.5,N
1574553955.3,286047002.9,N
1574553975.1,286047004.2,N
1574553995.8,286047002.0,N
1574554015.7,286047003.9,N
1574554035.5,286047001.6,N
1574554055.4,286047002.4,N
1574554075.2,286047002.3,N
1574554095.0,286047002.8,N
1574554095.9,286047002.8,N
1574554115.8,286047001.9,N
1574554135.6,286047001.5,N
1574554155.4,286047001.6,N
1574554175.3,286047001.6,N
1574554195.1,286047001.3,N
1574554215.9,286047004.4,Y
1574554235.7,286047002.8,P
1574554255.5,286047000.8,P
1574554275.4,286047001.2,N
1574554295.2,286046998.7,N
1574554315.0,286046997.1,N
1574554316.0,286046997.1,N
1574554335.8,286046997.8,N
1574554355.6,286046995.0,N
1574554375.5,286046996.0,N
1574554395.3,286046996.4,N
1574554415.1,286046997.4,N
1574554435.9,286046996.9,N
1574554455.7,286046996.5,N
1574554475.6,286046997.1,N
1574554495.4,286046997.8,N
1574554515.2,286046995.4,N
1574554535.1,286046998.0,N
1574554536.0,286046998.0,N
1574554555.8,286046997.1,N
1574554575.6,286046997.9,N
1574554595.5,286046997.0,N
1574554615.3,286046997.4,N
1574554635.2,286046997.8,N
1574554655.9,286046997.1,N
1574554675.7,286046997.2,N
1574554695.6,286046996.6,N
1574554715.4,286046997.0,N
1574554735.3,286046999.5,N
1574554755.1,286046999.2,N
1574554756.0,286046999.2,N
1574554775.8,286046997.9,N
1574554795.7,286046994.9,Y
1574554815.5,286046998.2,P
1574554835.4,286046998.2,P
1574554855.2,286047000.0,N
1574554875.0,286047000.4,N
1574554875.9,286047000.4,N
1574554895.8,286047000.0,N
1574554915.6,286047002.8,N
1574554935.4,286047002.0,N
1574554955.3,286047000.4,N
1574554975.1,286047002.8,N
1574554995.9,286047002.8,N
1574555015.7,286047002.7,N
1574555035.5,286047002.6,N
1574555055.4,286047003.7,N
1574555075.2,286047001.7,N
1574555095.0,286047004.4,N
1574555095.9,286047004.4,N
1574555115.8,286047002.0,N
1574555135.6,286047002.2,N
1574555155.5,286047001.5,N
1574555175.3,286047004.0,N
1574555195.1,286047002.6,N
1574555215.9,286047002.2,N
1574555235.7,286047000.4,N
1574555255.5,286046999.9,N
1574555275.4,286047002.7,N
1574555295.2,286047002.2,N
1574555315.1,286047002.2,N
1574555316.0,286047002.2,N
1574555335.8,286047002.5,N
1574555355.6,286047002.9,N
1574555375.5,286047003.0,N
1574555395.3,286047003.0,N
1574555415.1,286047005.5,Y
1574555435.9,286047001.6,P
1574555455.7,286047003.9,P
1574555475.6,286046999.9,N
1574555495.4,286047002.6,N
1574555515.2,286047002.3,N
1574555535.1,286047002.3,N
1574555536.0,286047002.3,N
1574555555.8,286047000.9,N
1574555575.6,286047000.9,N
1574555595.5,286046998.1,N
1574555615.3,286046999.4,N
1574555635.2,286046998.9,N
1574555655.9,286046998.8,N
1574555675.7,286046999.3,N
1574555695.6,286046999.3,N
1574555715.4,286046996.7,N
1574555735.2,286046999.0,N
1574555755.1,286046998.9,N
1574555756.0,286046998.9,N
1574555775.8,286046999.3,N
1574555795.7,286047000.5,N
1574555815.5,286047000.2,N
1574555835.3,286047001.0,N
1574555855.2,286047000.3,N
1574555875.0,286046999.7,N
1574555875.9,286046999.7,N
1574555895.7,286047002.8,N
1574555915.6,286046999.8,N
1574555935.4,286047002.5,N
1574555955.3,286047002.3,N
1574555975.1,286046999.9,N
1574555976.0,286046999.9,N
1574555995.8,286047002.7,N
1574556015.7,286047001.0,N
1574556035.5,286047000.9,N
1574556055.3,286047000.9,N
1574556075.2,286046998.5,N
1574556095.0,286046998.1,N
1574556095.9,286046998.1,N
1574556115.8,286046998.5,N
1574556135.6,286047000.4,N
1574556155.4,286047002.8,N
1574556175.3,286047001.9,N
1574556195.1,286047002.5,N
1574556215.8,286047000.3,N
1574556235.7,286046999.9,N
1574556255.5,286047002.2,N
1574556275.4,286047002.7,N
1574556295.2,286047000.8,N
1574556315.0,286047002.0,N
1574556315.9,286047002.0,N
1574556335.8,286047002.8,N
1574556355.6,286047002.4,N
1574556375.4,286047001.5,N
1574556395.3,286047002.7,N
1574556415.1,286047002.3,N
1574556435.9,286047002.4,N
1574556455.7,286047003.5,N
1574556475.5,286046999.7,N
1574556495.4,286047002.8,N
1574556515.2,286047004.3,N
1574556535.1,286047004.3,N
1574556536.0,286047004.3,N
1574556555.8,286047001.6,N
1574556575.6,286046999.8,N
1574556595.5,286046998.6,N
1574556615.3,286046998.5,N
1574556635.1,286046999.4,N
1574556655.9,286046998.3,N
1574556675.7,286046998.6,N
1574556695.6,286047001.2,N
1574556715.4,286047000.6,N
1574556735.2,286047002.7,N
1574556755.1,286047002.8,N
1574556756.0,286047002.8,N
1574556775.8,286046998.1,N
1574556795.6,286047000.7,N
1574556815.5,286047000.7,N
1574556835.3,286046999.9,N
1574556855.2,286047002.6,N
1574556875.9,286047001.9,N
1574556895.7,286047000.7,N
1574556915.6,286047000.1,N
1574556935.4,286047002.6,N
1574556955.2,286047000.5,N
1574556975.1,286047000.1,N
1574556976.0,286047000.1,N
1574556995.8,286047000.4,N
1574557015.7,286047001.0,N
1574557035.5,286046998.1,N
1574557055.3,286047000.7,N
1574557075.2,286046998.2,N
1574557095.0,286047000.1,N
1574557095.9,286047000.1,N
1574557115.8,286047002.0,N
1574557135.6,286047001.8,N
1574557155.4,286047000.2,N
1574557175.3,286047000.3,N
1574557195.1,286046999.9,N
